Regional Weather Roundup
Issued by NWS Cleveland, OH

Home | Current Version | Previous Version | Text Only | Print | Product List | Glossary Off
Versions: 1 2 3 4 5 6 7 8 9 10 11 12 13 14 15 16 17 18 19 20 21 22 23 24 25 26 27 28 29 30 31 32 33 34 35 36 37 38 39 40 41 42 43 44 45 46 47 48 49 50

357
ASUS41 KCLE 270712
RWRCLE
OHIO REGIONAL WEATHER ROUNDUP
NATIONAL WEATHER SERVICE WILMINGTON, OH
300 AM EDT MON MAR 27 2017

NOTE: "FAIR" INDICATES FEW OR NO CLOUDS BELOW 12,000 FEET WITH NO
SIGNIFICANT WEATHER AND/OR OBSTRUCTIONS TO VISIBILITY.

OHZ001>008-015>018-024>027-034-035-043-044-270800-
   NORTHWEST OHIO

CITY           SKY/WX    TMP DP  RH WIND       PRES   REMARKS
DEFIANCE       CLOUDY    51  49  92 SW7       29.89S
FINDLAY        CLOUDY    55  50  83 SW10      29.89F
TOLEDO EXPRESS MOCLDY    52  52 100 W9        29.87S
TOLEDO EXEC    CLOUDY    54  53  97 SW8       29.88F
LIMA           MOCLDY    52  50  93 SW9       29.91F
$$

OHZ009>014-019>023-028>033-038-089-270800-
   NORTHEAST OHIO

CITY           SKY/WX    TMP DP  RH WIND       PRES   REMARKS
CLE-HOPKINS    FAIR      57  52  83 S10       29.91F
CLE-LAKEFRONT  CLOUDY    57  53  86 S12       29.88S
CUY CO. ARPT   NOT AVBL
LORAIN-ELYRIA  CLOUDY    54  50  86 SW8       29.89F
ASHTABULA      CLOUDY    53  52  96 S8        29.91S
AKRON-CANTON   CLOUDY    54  51  90 SW14      29.92S FOG
WOOSTER        CLOUDY    54  52  93 SW9       29.92S
MANSFIELD      CLOUDY    54  52  93 SW12      29.91S
YOUNGSTOWN     CLOUDY    54  52  93 S6        29.93S
$$

OHZ042-051>053-060>062-070>072-077>081-270800-
  SOUTHWEST OHIO

CITY           SKY/WX    TMP DP  RH WIND       PRES   REMARKS
CINC-COVINGTON FAIR      49  49 100 SW6       29.96S
CINC-LUNKEN    FOG       45  32  60 SW6       29.98R VSB 1/4
HAMILTON       FOG       46  46 100 CALM      29.97S VSB 1/2
DAYTON         FAIR      51  49  92 S8        29.95R
WRIGHT-PAT AFB FAIR      46  46 100 SW5       29.94S
DAYTON GENERAL FAIR      49  48  97 SW6       29.95R FOG
WILMINGTON     FAIR      50  50 100 SW3       29.95F FOG
$$

OHZ036-037-039>041-045>050-054>059-063>069-073>076-082>088-270800-
  CENTRAL AND SOUTHEAST OHIO

CITY           SKY/WX    TMP DP  RH WIND       PRES   REMARKS
COLUMBUS       FAIR      54  52  93 SW6       29.94S
OSU AIRPORT    FAIR      51  51 100 S7        29.93F FOG
BOLTON FIELD   FAIR      50  50 100 SW7       29.95S FOG
RICKENBACK AFB FAIR      50  50 100 SW3       29.94F
NEWARK         FAIR      52  51  97 SW6       29.93F
MARION         FAIR      50  49  96 S6        29.92F FOG
LANCASTER      FAIR      55  52  89 SW5       29.95F
ZANESVILLE     FAIR      54  52  93 S5        29.94F
NEW PHILLY     MOCLDY    55  54  96 SW5       29.93F
$$




USA.gov is the U.S. government's official web portal to all federal, state and local government web resources and services.